World > North America > United States > Illinois

Hourly Ezra, IL Regional Weather

Feedback E-mail the Weather

Quick WX

Ezra, IL Weather Maps

°F °C°F °C
Ezra Weather Map
UTC Time: 6/29/2022, 19:42
Your Time:

Ezra, IL Regional Weather

Expires:202206292000;;398645
ASUS43 KLOT 291909
RWRIL 

ILLINOIS REGIONAL WEATHER ROUNDUP
NATIONAL WEATHER SERVICE CHICAGO/ROMEOVILLE IL
200 PM CDT WED JUN 29 2022

NOTE: "FAIR" INDICATES FEW OR NO CLOUDS BELOW 12,000 FEET WITH NO
SIGNIFICANT WEATHER AND/OR OBSTRUCTIONS TO VISIBILITY.

* THESE STATIONS ARE NOT UNDER NWS QUALITY CONTROL. THEY ALSO MAY NOT
  REPORT WEATHER SUCH AS PRECIPITATION OR FOG.


ILZ064>066-069>071-074>076-080>082-084>086-088>090-092>094-292000-
SOUTH-CENTRAL ILLINOIS
  
CITY           SKY/WX    TMP DP  RH WIND       PRES   REMARKS
CARBONDALE     SUNNY     87  54  32 MISG      30.22F HX  85           
EFFINGHAM*     SUNNY     84  58  42 S6        30.24F HX  83           
MARION         SUNNY     82  57  42 NE5       30.23F HX  82           
MT. VERNON     SUNNY    N/A N/A N/A VRB5      30.23F                  
CENTRALIA*     SUNNY     84  59  42 CALM      30.22F HX  84           
SALEM*         SUNNY     85  59  40 S7        30.23F HX  85           
METROPOLIS*    SUNNY     83  53  35 E5        30.24F HX  81           
$$


SKY/WX - Weather  TMP - Temperature  DP - Dew Point  RH - Humidity
WIND - Wind Direction/Speed PRES - Barometric Pressure VSB - Visibility
WCI - Wind Chill Index E13G22 Wind - East Wind 13 mph/Gusts of 22 mph

Trending Headlines

Ezra Radar Loop



Ezra Quick Facts


National Two Day Weather Forecast


E-mail the Ezra Weather Forecast

Voice your opinion or tell us about page issues...